Year,Month,Day,Hour,Minute,Value (Times are PST for temperature in C)
2013,03,30,00,00,6.40
2013,03,30,00,01,6.40
2013,03,30,00,02,6.40
2013,03,30,00,03,6.40
2013,03,30,00,04,6.30
2013,03,30,00,05,6.30
2013,03,30,00,06,6.30
2013,03,30,00,07,6.30
2013,03,30,00,08,6.30
2013,03,30,00,09,6.30
2013,03,30,00,10,6.30
2013,03,30,00,11,6.20
2013,03,30,00,12,6.20
2013,03,30,00,13,6.20
2013,03,30,00,14,6.20
2013,03,30,00,15,6.20
2013,03,30,00,16,6.20
2013,03,30,00,17,6.20
2013,03,30,00,18,6.20
2013,03,30,00,19,6.10
2013,03,30,00,20,6.10
2013,03,30,00,21,6.10
2013,03,30,00,22,6.10
2013,03,30,00,23,6.10
2013,03,30,00,24,6.10
2013,03,30,00,25,6.10
2013,03,30,00,26,6.00
2013,03,30,00,27,6.00
2013,03,30,00,28,6.00
2013,03,30,00,29,6.00
2013,03,30,00,30,6.00
2013,03,30,00,31,6.00
2013,03,30,00,32,6.00
2013,03,30,00,33,6.00
2013,03,30,00,34,6.00
2013,03,30,00,35,5.90
2013,03,30,00,36,5.90
2013,03,30,00,37,5.90
2013,03,30,00,38,5.90
2013,03,30,00,39,5.90
2013,03,30,00,40,5.90
2013,03,30,00,41,5.90
2013,03,30,00,42,5.90
2013,03,30,00,43,5.90
2013,03,30,00,44,5.80
2013,03,30,00,45,5.80
2013,03,30,00,46,5.80
2013,03,30,00,47,5.80
2013,03,30,00,48,5.80
2013,03,30,00,49,5.80
2013,03,30,00,50,5.70
2013,03,30,00,51,5.70
2013,03,30,00,52,5.70
2013,03,30,00,53,5.70
2013,03,30,00,54,5.70
2013,03,30,00,55,5.70
2013,03,30,00,56,5.70
2013,03,30,00,57,5.70
2013,03,30,00,58,5.70
2013,03,30,00,59,5.70
2013,03,30,01,00,5.70
2013,03,30,01,01,5.70
2013,03,30,01,02,5.70
2013,03,30,01,03,5.70
2013,03,30,01,04,5.70
2013,03,30,01,05,5.70
2013,03,30,01,06,5.70
2013,03,30,01,07,5.70
2013,03,30,01,08,5.60
2013,03,30,01,09,5.60
2013,03,30,01,10,5.60
2013,03,30,01,11,5.60
2013,03,30,01,12,5.60
2013,03,30,01,13,5.60
2013,03,30,01,14,5.50
2013,03,30,01,15,5.50
2013,03,30,01,16,5.50
2013,03,30,01,17,5.50
2013,03,30,01,18,5.50
2013,03,30,01,19,5.50
2013,03,30,01,20,5.50
2013,03,30,01,21,5.50
2013,03,30,01,22,5.50
2013,03,30,01,23,5.50
2013,03,30,01,24,5.50
2013,03,30,01,25,5.50
2013,03,30,01,26,5.60
2013,03,30,01,27,5.60
2013,03,30,01,28,5.60
2013,03,30,01,29,5.50
2013,03,30,01,30,5.50
2013,03,30,01,31,5.50
2013,03,30,01,32,5.50
2013,03,30,01,33,5.50
2013,03,30,01,34,5.40
2013,03,30,01,35,5.40
2013,03,30,01,36,5.40
2013,03,30,01,37,5.40
2013,03,30,01,38,5.40
2013,03,30,01,39,5.40
2013,03,30,01,40,5.40
2013,03,30,01,41,5.50
2013,03,30,01,42,5.50
2013,03,30,01,43,5.50
2013,03,30,01,44,5.50
2013,03,30,01,45,5.50
2013,03,30,01,46,5.50
2013,03,30,01,47,5.50
2013,03,30,01,48,5.50
2013,03,30,01,49,5.50
2013,03,30,01,50,5.50
2013,03,30,01,51,5.50
2013,03,30,01,52,5.50
2013,03,30,01,53,5.50
2013,03,30,01,54,5.40
2013,03,30,01,55,5.40
2013,03,30,01,56,5.40
2013,03,30,01,57,5.40
2013,03,30,01,58,5.40
2013,03,30,01,59,5.40
2013,03,30,02,00,5.40
2013,03,30,02,01,5.40
2013,03,30,02,02,5.40
2013,03,30,02,03,5.40
2013,03,30,02,04,5.30
2013,03,30,02,05,5.30
2013,03,30,02,06,5.30
2013,03,30,02,07,5.30
2013,03,30,02,08,5.30
2013,03,30,02,09,5.30
2013,03,30,02,10,5.20
2013,03,30,02,11,5.20
2013,03,30,02,12,5.20
2013,03,30,02,13,5.20
2013,03,30,02,14,5.10
2013,03,30,02,15,5.10
2013,03,30,02,16,5.10
2013,03,30,02,17,5.10
2013,03,30,02,18,5.10
2013,03,30,02,19,5.10
2013,03,30,02,20,5.10
2013,03,30,02,21,5.10
2013,03,30,02,22,5.10
2013,03,30,02,23,5.10
2013,03,30,02,24,5.10
2013,03,30,02,25,5.10
2013,03,30,02,26,5.00
2013,03,30,02,27,4.90
2013,03,30,02,28,4.90
2013,03,30,02,29,4.90
2013,03,30,02,30,4.90
2013,03,30,02,31,4.90
2013,03,30,02,32,4.90
2013,03,30,02,33,4.90
2013,03,30,02,34,4.90
2013,03,30,02,35,4.80
2013,03,30,02,36,4.80
2013,03,30,02,37,4.80
2013,03,30,02,38,4.80
2013,03,30,02,39,4.80
2013,03,30,02,40,4.80
2013,03,30,02,41,4.70
2013,03,30,02,42,4.70
2013,03,30,02,43,4.70
2013,03,30,02,44,4.70
2013,03,30,02,45,4.70
2013,03,30,02,46,4.70
2013,03,30,02,47,4.70
2013,03,30,02,48,4.70
2013,03,30,02,49,4.60
2013,03,30,02,50,4.60
2013,03,30,02,51,4.60
2013,03,30,02,52,4.60
2013,03,30,02,53,4.60
2013,03,30,02,54,4.60
2013,03,30,02,55,4.60
2013,03,30,02,56,4.60
2013,03,30,02,57,4.60
2013,03,30,02,58,4.60
2013,03,30,02,59,4.60
2013,03,30,03,00,4.60
2013,03,30,03,01,4.60
2013,03,30,03,02,4.60
2013,03,30,03,03,4.60
2013,03,30,03,04,4.60
2013,03,30,03,05,4.60
2013,03,30,03,06,4.60
2013,03,30,03,07,4.60
2013,03,30,03,08,4.60
2013,03,30,03,09,4.60
2013,03,30,03,10,4.60
2013,03,30,03,11,4.60
2013,03,30,03,12,4.60
2013,03,30,03,13,4.60
2013,03,30,03,14,4.60
2013,03,30,03,15,4.60
2013,03,30,03,16,4.60
2013,03,30,03,17,4.60
2013,03,30,03,18,4.60
2013,03,30,03,19,4.60
2013,03,30,03,20,4.60
2013,03,30,03,21,4.60
2013,03,30,03,22,4.60
2013,03,30,03,23,4.50
2013,03,30,03,24,4.50
2013,03,30,03,25,4.50
2013,03,30,03,26,4.50
2013,03,30,03,27,4.40
2013,03,30,03,28,4.40
2013,03,30,03,29,4.40
2013,03,30,03,30,4.40
2013,03,30,03,31,4.40
2013,03,30,03,32,4.40
2013,03,30,03,33,4.40
2013,03,30,03,34,4.40
2013,03,30,03,35,4.30
2013,03,30,03,36,4.30
2013,03,30,03,37,4.30
2013,03,30,03,38,4.30
2013,03,30,03,39,4.30
2013,03,30,03,40,4.30
2013,03,30,03,41,4.20
2013,03,30,03,42,4.20
2013,03,30,03,43,4.20
2013,03,30,03,44,4.20
2013,03,30,03,45,4.20
2013,03,30,03,46,4.20
2013,03,30,03,47,4.20
2013,03,30,03,48,4.20
2013,03,30,03,49,4.20
2013,03,30,03,50,4.20
2013,03,30,03,51,4.10
2013,03,30,03,52,4.10
2013,03,30,03,53,4.10
2013,03,30,03,54,4.10
2013,03,30,03,55,4.10
2013,03,30,03,56,4.10
2013,03,30,03,57,4.10
2013,03,30,03,58,4.10
2013,03,30,03,59,4.10
2013,03,30,04,00,4.10
2013,03,30,04,01,4.10
2013,03,30,04,02,4.10
2013,03,30,04,03,4.10
2013,03,30,04,04,4.10
2013,03,30,04,05,4.10
2013,03,30,04,06,4.00
2013,03,30,04,07,4.00
2013,03,30,04,08,4.00
2013,03,30,04,09,3.90
2013,03,30,04,10,3.90
2013,03,30,04,11,3.80
2013,03,30,04,12,3.80
2013,03,30,04,13,3.80
2013,03,30,04,14,3.80
2013,03,30,04,15,3.80
2013,03,30,04,16,3.80
2013,03,30,04,17,3.80
2013,03,30,04,18,3.80
2013,03,30,04,19,3.80
2013,03,30,04,20,3.80
2013,03,30,04,21,3.80
2013,03,30,04,22,3.80
2013,03,30,04,23,3.80
2013,03,30,04,24,3.80
2013,03,30,04,25,3.80
2013,03,30,04,26,3.80
2013,03,30,04,27,3.80
2013,03,30,04,28,3.90
2013,03,30,04,29,3.90
2013,03,30,04,30,3.80
2013,03,30,04,31,3.80
2013,03,30,04,32,3.80
2013,03,30,04,33,3.80
2013,03,30,04,34,3.80
2013,03,30,04,35,3.80
2013,03,30,04,36,3.80
2013,03,30,04,37,3.80
2013,03,30,04,38,3.80
2013,03,30,04,39,3.80
2013,03,30,04,40,3.80
2013,03,30,04,41,3.80
2013,03,30,04,42,3.80
2013,03,30,04,43,3.80
2013,03,30,04,44,3.80
2013,03,30,04,45,3.80
2013,03,30,04,46,3.80
2013,03,30,04,47,3.80
2013,03,30,04,48,3.80
2013,03,30,04,49,3.80
2013,03,30,04,50,3.80
2013,03,30,04,51,3.80
2013,03,30,04,52,3.80
2013,03,30,04,53,3.80
2013,03,30,04,54,3.70
2013,03,30,04,55,3.70
2013,03,30,04,56,3.70
2013,03,30,04,57,3.70
2013,03,30,04,58,3.60
2013,03,30,04,59,3.60
2013,03,30,05,00,3.60
2013,03,30,05,01,3.60
2013,03,30,05,02,3.60
2013,03,30,05,03,3.60
2013,03,30,05,04,3.60
2013,03,30,05,05,3.60
2013,03,30,05,06,3.60
2013,03,30,05,07,3.60
2013,03,30,05,08,3.60
2013,03,30,05,09,3.60
2013,03,30,05,10,3.60
2013,03,30,05,11,3.60
2013,03,30,05,12,3.60
2013,03,30,05,13,3.60
2013,03,30,05,14,3.60
2013,03,30,05,15,3.50
2013,03,30,05,16,3.50
2013,03,30,05,17,3.50
2013,03,30,05,18,3.60
2013,03,30,05,19,3.60
2013,03,30,05,20,3.60
2013,03,30,05,21,3.60
2013,03,30,05,22,3.60
2013,03,30,05,23,3.60
2013,03,30,05,24,3.50
2013,03,30,05,25,3.50
2013,03,30,05,26,3.50
2013,03,30,05,27,3.50
2013,03,30,05,28,3.50
2013,03,30,05,29,3.50
2013,03,30,05,30,3.60
2013,03,30,05,31,3.60
2013,03,30,05,32,3.60
2013,03,30,05,33,3.60
2013,03,30,05,34,3.60
2013,03,30,05,35,3.60
2013,03,30,05,36,3.60
2013,03,30,05,37,3.60
2013,03,30,05,38,3.50
2013,03,30,05,39,3.50
2013,03,30,05,40,3.50
2013,03,30,05,41,3.50
2013,03,30,05,42,3.50
2013,03,30,05,43,3.50
2013,03,30,05,44,3.40
2013,03,30,05,45,3.40
2013,03,30,05,46,3.40
2013,03,30,05,47,3.40
2013,03,30,05,48,3.40
2013,03,30,05,49,3.30
2013,03,30,05,50,3.30
2013,03,30,05,51,3.30
2013,03,30,05,52,3.30
2013,03,30,05,53,3.30
2013,03,30,05,54,3.30
2013,03,30,05,55,3.30
2013,03,30,05,56,3.30
2013,03,30,05,57,3.30
2013,03,30,05,58,3.30
2013,03,30,05,59,3.30
2013,03,30,06,00,3.30
2013,03,30,06,01,3.30
2013,03,30,06,02,3.30
2013,03,30,06,03,3.30
2013,03,30,06,04,3.30
2013,03,30,06,05,3.30
2013,03,30,06,06,3.30
2013,03,30,06,07,3.30
2013,03,30,06,08,3.40
2013,03,30,06,09,3.40
2013,03,30,06,10,3.50
2013,03,30,06,11,3.50
2013,03,30,06,12,3.60
2013,03,30,06,13,3.60
2013,03,30,06,14,3.60
2013,03,30,06,15,3.50
2013,03,30,06,16,3.50
2013,03,30,06,17,3.50
2013,03,30,06,18,3.50
2013,03,30,06,19,3.50
2013,03,30,06,20,3.50
2013,03,30,06,21,3.50
2013,03,30,06,22,3.50
2013,03,30,06,23,3.50
2013,03,30,06,24,3.40
2013,03,30,06,25,3.30
2013,03,30,06,26,3.30
2013,03,30,06,27,3.30
2013,03,30,06,28,3.30
2013,03,30,06,29,3.30
2013,03,30,06,30,3.30
2013,03,30,06,31,3.30
2013,03,30,06,32,3.40
2013,03,30,06,33,3.40
2013,03,30,06,34,3.40
2013,03,30,06,35,3.40
2013,03,30,06,36,3.50
2013,03,30,06,37,3.60
2013,03,30,06,38,3.60
2013,03,30,06,39,3.80
2013,03,30,06,40,3.90
2013,03,30,06,41,4.00
2013,03,30,06,42,4.10
2013,03,30,06,43,4.20
2013,03,30,06,44,4.20
2013,03,30,06,45,4.10
2013,03,30,06,46,4.10
2013,03,30,06,47,4.00
2013,03,30,06,48,4.00
2013,03,30,06,49,3.90
2013,03,30,06,50,3.80
2013,03,30,06,51,3.80
2013,03,30,06,52,3.70
2013,03,30,06,53,3.70
2013,03,30,06,54,3.60
2013,03,30,06,55,3.60
2013,03,30,06,56,3.50
2013,03,30,06,57,3.50
2013,03,30,06,58,3.50
2013,03,30,06,59,3.40
2013,03,30,07,00,3.40
2013,03,30,07,01,3.30
2013,03,30,07,02,3.30
2013,03,30,07,03,3.30
2013,03,30,07,04,3.20
2013,03,30,07,05,3.20
2013,03,30,07,06,3.10
2013,03,30,07,07,3.10
2013,03,30,07,08,3.10
2013,03,30,07,09,3.10
2013,03,30,07,10,3.10
2013,03,30,07,11,3.10
2013,03,30,07,12,3.10
2013,03,30,07,13,3.10
2013,03,30,07,14,3.10
2013,03,30,07,15,3.10
2013,03,30,07,16,3.10
2013,03,30,07,17,3.10
2013,03,30,07,18,3.10
2013,03,30,07,19,3.10
2013,03,30,07,20,3.10
2013,03,30,07,21,3.20
2013,03,30,07,22,3.20
2013,03,30,07,23,3.30
2013,03,30,07,24,3.30
2013,03,30,07,25,3.30
2013,03,30,07,26,3.30
2013,03,30,07,27,3.40
2013,03,30,07,28,3.40
2013,03,30,07,29,3.50
2013,03,30,07,30,3.50
2013,03,30,07,31,3.60
2013,03,30,07,32,3.60
2013,03,30,07,33,3.60
2013,03,30,07,34,3.60
2013,03,30,07,35,3.60
2013,03,30,07,36,3.60
2013,03,30,07,37,3.50
2013,03,30,07,38,3.50
2013,03,30,07,39,3.50
2013,03,30,07,40,3.50
2013,03,30,07,41,3.50
2013,03,30,07,42,3.50
2013,03,30,07,43,3.50
2013,03,30,07,44,3.50
2013,03,30,07,45,3.50
2013,03,30,07,46,3.60
2013,03,30,07,47,3.60
2013,03,30,07,48,3.60
2013,03,30,07,49,3.70
2013,03,30,07,50,3.80
2013,03,30,07,51,3.80
2013,03,30,07,52,3.80
2013,03,30,07,53,3.90
2013,03,30,07,54,4.00
2013,03,30,07,55,4.00
2013,03,30,07,56,4.10
2013,03,30,07,57,4.10
2013,03,30,07,58,4.20
2013,03,30,07,59,4.20
2013,03,30,08,00,4.20
2013,03,30,08,01,4.20
2013,03,30,08,02,4.20
2013,03,30,08,03,4.20
2013,03,30,08,04,4.30
2013,03,30,08,05,4.30
2013,03,30,08,06,4.40
2013,03,30,08,07,4.40
2013,03,30,08,08,4.50
2013,03,30,08,09,4.60
2013,03,30,08,10,4.60
2013,03,30,08,11,4.60
2013,03,30,08,12,4.70
2013,03,30,08,13,4.70
2013,03,30,08,14,4.70
2013,03,30,08,15,4.70
2013,03,30,08,16,4.70
2013,03,30,08,17,4.70
2013,03,30,08,18,4.80
2013,03,30,08,19,4.80
2013,03,30,08,20,4.80
2013,03,30,08,21,4.90
2013,03,30,08,22,4.90
2013,03,30,08,23,4.90
2013,03,30,08,24,5.10
2013,03,30,08,25,5.10
2013,03,30,08,26,5.20
2013,03,30,08,27,5.30
2013,03,30,08,28,5.40
2013,03,30,08,29,5.50
2013,03,30,08,30,5.70
2013,03,30,08,31,5.80
2013,03,30,08,32,6.00
2013,03,30,08,33,6.20
2013,03,30,08,34,6.30
2013,03,30,08,35,6.50
2013,03,30,08,36,6.60
2013,03,30,08,37,6.70
2013,03,30,08,38,6.80
2013,03,30,08,39,6.90
2013,03,30,08,40,7.00
2013,03,30,08,41,7.10
2013,03,30,08,42,7.30
2013,03,30,08,43,7.40
2013,03,30,08,44,7.50
2013,03,30,08,45,7.60
2013,03,30,08,46,7.80
2013,03,30,08,47,7.90
2013,03,30,08,48,8.00
2013,03,30,08,49,8.10
2013,03,30,08,50,8.20
2013,03,30,08,51,8.40
2013,03,30,08,52,8.50
2013,03,30,08,53,8.60
2013,03,30,08,54,8.70
2013,03,30,08,55,8.90
2013,03,30,08,56,9.00
2013,03,30,08,57,9.10
2013,03,30,08,58,9.20
2013,03,30,08,59,9.30
2013,03,30,09,00,9.40
2013,03,30,09,01,9.50
2013,03,30,09,02,9.50
2013,03,30,09,03,9.60
2013,03,30,09,04,9.70
2013,03,30,09,05,9.70
2013,03,30,09,06,9.80
2013,03,30,09,07,9.90
2013,03,30,09,08,9.90
2013,03,30,09,09,10.00
2013,03,30,09,10,10.10
2013,03,30,09,11,10.10
2013,03,30,09,12,10.20
2013,03,30,09,13,10.20
2013,03,30,09,14,10.30
2013,03,30,09,15,10.30
2013,03,30,09,16,10.30
2013,03,30,09,17,10.40
2013,03,30,09,18,10.40
2013,03,30,09,19,10.50
2013,03,30,09,20,10.60
2013,03,30,09,21,10.60
2013,03,30,09,22,10.60
2013,03,30,09,23,10.70
2013,03,30,09,24,10.80
2013,03,30,09,25,10.80
2013,03,30,09,26,10.90
2013,03,30,09,27,10.90
2013,03,30,09,28,10.90
2013,03,30,09,29,10.90
2013,03,30,09,30,11.00
2013,03,30,09,31,11.10
2013,03,30,09,32,11.10
2013,03,30,09,33,11.10
2013,03,30,09,34,11.20
2013,03,30,09,35,11.20
2013,03,30,09,36,11.30
2013,03,30,09,37,11.30
2013,03,30,09,38,11.40
2013,03,30,09,39,11.40
2013,03,30,09,40,11.40
2013,03,30,09,41,11.50
2013,03,30,09,42,11.60
2013,03,30,09,43,11.60
2013,03,30,09,44,11.60
2013,03,30,09,45,11.60
2013,03,30,09,46,11.70
2013,03,30,09,47,11.70
2013,03,30,09,48,11.80
2013,03,30,09,49,11.80
2013,03,30,09,50,11.90
2013,03,30,09,51,11.90
2013,03,30,09,52,12.00
2013,03,30,09,53,12.00
2013,03,30,09,54,12.00
2013,03,30,09,55,12.00
2013,03,30,09,56,12.00
2013,03,30,09,57,11.90
2013,03,30,09,58,11.90
2013,03,30,09,59,11.90
2013,03,30,10,00,11.90
2013,03,30,10,01,12.00
2013,03,30,10,02,12.00
2013,03,30,10,03,12.10
2013,03,30,10,04,12.20
2013,03,30,10,05,12.20
2013,03,30,10,06,12.30
2013,03,30,10,07,12.30
2013,03,30,10,08,12.30
2013,03,30,10,09,12.30
2013,03,30,10,10,12.30
2013,03,30,10,11,12.30
2013,03,30,10,12,12.30
2013,03,30,10,13,12.30
2013,03,30,10,14,12.30
2013,03,30,10,15,12.30
2013,03,30,10,16,12.30
2013,03,30,10,17,12.30
2013,03,30,10,18,12.30
2013,03,30,10,19,12.30
2013,03,30,10,20,12.30
2013,03,30,10,21,12.30
2013,03,30,10,22,12.20
2013,03,30,10,23,12.20
2013,03,30,10,24,12.20
2013,03,30,10,25,12.20
2013,03,30,10,26,12.20
2013,03,30,10,27,12.30
2013,03,30,10,28,12.30
2013,03,30,10,29,12.30
2013,03,30,10,30,12.20
2013,03,30,10,31,12.20
2013,03,30,10,32,12.20
2013,03,30,10,33,12.20
2013,03,30,10,34,12.20
2013,03,30,10,35,12.20
2013,03,30,10,36,12.20
2013,03,30,10,37,12.20
2013,03,30,10,38,12.30
2013,03,30,10,39,12.30
2013,03,30,10,40,12.30
2013,03,30,10,41,12.30
2013,03,30,10,42,12.30
2013,03,30,10,43,12.30
2013,03,30,10,44,12.30
2013,03,30,10,45,12.20
2013,03,30,10,46,12.20
2013,03,30,10,47,12.20
2013,03,30,10,48,12.10
2013,03,30,10,49,12.10
2013,03,30,10,50,12.10
2013,03,30,10,51,12.10
2013,03,30,10,52,12.10
2013,03,30,10,53,12.10
2013,03,30,10,54,12.10
2013,03,30,10,55,12.10
2013,03,30,10,56,12.20
2013,03,30,10,57,12.30
2013,03,30,10,58,12.30
2013,03,30,10,59,12.30
2013,03,30,11,00,12.30
2013,03,30,11,01,12.40
2013,03,30,11,02,12.30
2013,03,30,11,03,12.30
2013,03,30,11,04,12.30
2013,03,30,11,05,12.50
2013,03,30,11,06,12.50
2013,03,30,11,07,12.50
2013,03,30,11,08,12.50
2013,03,30,11,09,12.40
2013,03,30,11,10,12.40
2013,03,30,11,11,12.40
2013,03,30,11,12,12.40
2013,03,30,11,13,12.40
2013,03,30,11,14,12.50
2013,03,30,11,15,12.60
2013,03,30,11,16,12.70
2013,03,30,11,17,12.80
2013,03,30,11,18,12.80
2013,03,30,11,19,12.80
2013,03,30,11,20,12.80
2013,03,30,11,21,12.80
2013,03,30,11,22,12.80
2013,03,30,11,23,12.90
2013,03,30,11,24,12.90
2013,03,30,11,25,13.00
2013,03,30,11,26,13.10
2013,03,30,11,27,13.10
2013,03,30,11,28,13.20
2013,03,30,11,29,13.20
2013,03,30,11,30,13.20
2013,03,30,11,31,13.20
2013,03,30,11,32,13.10
2013,03,30,11,33,13.10
2013,03,30,11,34,13.10
2013,03,30,11,35,13.10
2013,03,30,11,36,13.10
2013,03,30,11,37,13.00
2013,03,30,11,38,12.90
2013,03,30,11,39,12.90
2013,03,30,11,40,12.90
2013,03,30,11,41,13.00
2013,03,30,11,42,13.10
2013,03,30,11,43,13.20
2013,03,30,11,44,13.20
2013,03,30,11,45,13.30
2013,03,30,11,46,13.30
2013,03,30,11,47,13.40
2013,03,30,11,48,13.40
2013,03,30,11,49,13.40
2013,03,30,11,50,13.40
2013,03,30,11,51,13.40
2013,03,30,11,52,13.30
2013,03,30,11,53,13.30
2013,03,30,11,54,13.30
2013,03,30,11,55,13.40
2013,03,30,11,56,13.50
2013,03,30,11,57,13.50
2013,03,30,11,58,13.40
2013,03,30,11,59,13.30
2013,03,30,12,00,13.20
2013,03,30,12,01,13.30
2013,03,30,12,02,13.30
2013,03,30,12,03,13.30
2013,03,30,12,04,13.30
2013,03,30,12,05,13.30
2013,03,30,12,06,13.30
2013,03,30,12,07,13.30
2013,03,30,12,08,13.30
2013,03,30,12,09,13.30
2013,03,30,12,10,13.40
2013,03,30,12,11,13.40
2013,03,30,12,12,13.40
2013,03,30,12,13,13.50
2013,03,30,12,14,13.50
2013,03,30,12,15,13.60
2013,03,30,12,16,13.60
2013,03,30,12,17,13.70
2013,03,30,12,18,13.70
2013,03,30,12,19,13.70
2013,03,30,12,20,13.80
2013,03,30,12,21,13.80
2013,03,30,12,22,13.80
2013,03,30,12,23,13.90
2013,03,30,12,24,13.80
2013,03,30,12,25,13.80
2013,03,30,12,26,13.90
2013,03,30,12,27,13.90
2013,03,30,12,28,13.90
2013,03,30,12,29,13.90
2013,03,30,12,30,13.90
2013,03,30,12,31,13.90
2013,03,30,12,32,13.90
2013,03,30,12,33,13.90
2013,03,30,12,34,13.80
2013,03,30,12,35,13.70
2013,03,30,12,36,13.70
2013,03,30,12,37,13.70
2013,03,30,12,38,13.70
2013,03,30,12,39,13.70
2013,03,30,12,40,13.90
2013,03,30,12,41,14.00
2013,03,30,12,42,14.00
2013,03,30,12,43,14.00
2013,03,30,12,44,14.00
2013,03,30,12,45,13.90
2013,03,30,12,46,13.90
2013,03,30,12,47,13.80
2013,03,30,12,48,13.90
2013,03,30,12,49,14.10
2013,03,30,12,50,14.20
2013,03,30,12,51,14.30
2013,03,30,12,52,14.40
2013,03,30,12,53,14.50
2013,03,30,12,54,14.60
2013,03,30,12,55,14.60
2013,03,30,12,56,14.60
2013,03,30,12,57,14.60
2013,03,30,12,58,14.60
2013,03,30,12,59,14.60
2013,03,30,13,00,14.50
2013,03,30,13,01,14.40
2013,03,30,13,02,14.30
2013,03,30,13,03,14.30
2013,03,30,13,04,14.40
2013,03,30,13,05,14.40
2013,03,30,13,06,14.50
2013,03,30,13,07,14.50
2013,03,30,13,08,14.50
2013,03,30,13,09,14.50
2013,03,30,13,10,14.60
2013,03,30,13,11,14.60
2013,03,30,13,12,14.50
2013,03,30,13,13,14.50
2013,03,30,13,14,14.50
2013,03,30,13,15,14.50
2013,03,30,13,16,14.50
2013,03,30,13,17,14.50
2013,03,30,13,18,14.50
2013,03,30,13,19,14.40
2013,03,30,13,20,14.40
2013,03,30,13,21,14.40
2013,03,30,13,22,14.40
2013,03,30,13,23,14.40
2013,03,30,13,24,14.40
2013,03,30,13,25,14.40
2013,03,30,13,26,14.40
2013,03,30,13,27,14.40
2013,03,30,13,28,14.40
2013,03,30,13,29,14.50
2013,03,30,13,30,14.50
2013,03,30,13,31,14.50
2013,03,30,13,32,14.60
2013,03,30,13,33,14.60
2013,03,30,13,34,14.70
2013,03,30,13,35,14.90
2013,03,30,13,36,15.00
2013,03,30,13,37,15.20
2013,03,30,13,38,15.30
2013,03,30,13,39,15.40
2013,03,30,13,40,15.50
2013,03,30,13,41,15.60
2013,03,30,13,42,15.60
2013,03,30,13,43,15.60
2013,03,30,13,44,15.60
2013,03,30,13,45,15.70
2013,03,30,13,46,15.60
2013,03,30,13,47,15.50
2013,03,30,13,48,15.40
2013,03,30,13,49,15.30
2013,03,30,13,50,15.30
2013,03,30,13,51,15.30
2013,03,30,13,52,15.30
2013,03,30,13,53,15.30
2013,03,30,13,54,15.30
2013,03,30,13,55,15.30
2013,03,30,13,56,15.40
2013,03,30,13,57,15.50
2013,03,30,13,58,15.60
2013,03,30,13,59,15.70
2013,03,30,14,00,15.80
2013,03,30,14,01,15.80
2013,03,30,14,02,15.80
2013,03,30,14,03,15.80
2013,03,30,14,04,15.80
2013,03,30,14,05,15.80
2013,03,30,14,06,15.80
2013,03,30,14,07,15.80
2013,03,30,14,08,15.70
2013,03,30,14,09,15.60
2013,03,30,14,10,15.50
2013,03,30,14,11,15.40
2013,03,30,14,12,15.30
2013,03,30,14,13,15.40
2013,03,30,14,14,15.50
2013,03,30,14,15,15.70
2013,03,30,14,16,15.90
2013,03,30,14,17,15.90
2013,03,30,14,18,15.90
2013,03,30,14,19,15.90
2013,03,30,14,20,15.90
2013,03,30,14,21,16.00
2013,03,30,14,22,16.10
2013,03,30,14,23,16.10
2013,03,30,14,24,16.10
2013,03,30,14,25,16.10
2013,03,30,14,26,16.10
2013,03,30,14,27,16.10
2013,03,30,14,28,16.10
2013,03,30,14,29,16.10
2013,03,30,14,30,16.10
2013,03,30,14,31,16.10
2013,03,30,14,32,16.10
2013,03,30,14,33,16.10
2013,03,30,14,34,16.10
2013,03,30,14,35,16.10
2013,03,30,14,36,16.10
2013,03,30,14,37,16.00
2013,03,30,14,38,15.80
2013,03,30,14,39,15.80
2013,03,30,14,40,15.80
2013,03,30,14,41,15.80
2013,03,30,14,42,15.80
2013,03,30,14,43,15.80
2013,03,30,14,44,15.70
2013,03,30,14,45,15.70
2013,03,30,14,46,15.80
2013,03,30,14,47,15.90
2013,03,30,14,48,15.90
2013,03,30,14,49,15.80
2013,03,30,14,50,15.90
2013,03,30,14,51,16.00
2013,03,30,14,52,16.10
2013,03,30,14,53,16.20
2013,03,30,14,54,16.20
2013,03,30,14,55,16.20
2013,03,30,14,56,16.30
2013,03,30,14,57,16.40
2013,03,30,14,58,16.40
2013,03,30,14,59,16.50
2013,03,30,15,00,16.60
2013,03,30,15,01,16.70
2013,03,30,15,02,16.60
2013,03,30,15,03,16.40
2013,03,30,15,04,16.20
2013,03,30,15,05,16.10
2013,03,30,15,06,16.10
2013,03,30,15,07,16.20
2013,03,30,15,08,16.30
2013,03,30,15,09,16.40
2013,03,30,15,10,16.40
2013,03,30,15,11,16.40
2013,03,30,15,12,16.60
2013,03,30,15,13,16.50
2013,03,30,15,14,16.40
2013,03,30,15,15,16.40
2013,03,30,15,16,16.40
2013,03,30,15,17,16.40
2013,03,30,15,18,16.40
2013,03,30,15,19,16.30
2013,03,30,15,20,16.30
2013,03,30,15,21,16.30
2013,03,30,15,22,16.30
2013,03,30,15,23,16.40
2013,03,30,15,24,16.40
2013,03,30,15,25,16.30
2013,03,30,15,26,16.40
2013,03,30,15,27,16.40
2013,03,30,15,28,16.50
2013,03,30,15,29,16.60
2013,03,30,15,30,16.60
2013,03,30,15,31,16.70
2013,03,30,15,32,16.80
2013,03,30,15,33,16.80
2013,03,30,15,34,16.70
2013,03,30,15,35,16.70
2013,03,30,15,36,16.70
2013,03,30,15,37,16.70
2013,03,30,15,38,16.70
2013,03,30,15,39,16.80
2013,03,30,15,40,16.90
2013,03,30,15,41,17.00
2013,03,30,15,42,17.10
2013,03,30,15,43,17.10
2013,03,30,15,44,17.10
2013,03,30,15,45,17.20
2013,03,30,15,46,17.20
2013,03,30,15,47,17.20
2013,03,30,15,48,17.10
2013,03,30,15,49,17.00
2013,03,30,15,50,16.90
2013,03,30,15,51,16.90
2013,03,30,15,52,16.90
2013,03,30,15,53,16.90
2013,03,30,15,54,16.80
2013,03,30,15,55,16.80
2013,03,30,15,56,16.80
2013,03,30,15,57,16.80
2013,03,30,15,58,16.70
2013,03,30,15,59,16.70
2013,03,30,16,00,16.70
2013,03,30,16,01,16.70
2013,03,30,16,02,16.70
2013,03,30,16,03,16.70
2013,03,30,16,04,16.70
2013,03,30,16,05,16.70
2013,03,30,16,06,16.70
2013,03,30,16,07,16.70
2013,03,30,16,08,16.70
2013,03,30,16,09,16.70
2013,03,30,16,10,16.70
2013,03,30,16,11,16.90
2013,03,30,16,12,16.90
2013,03,30,16,13,17.00
2013,03,30,16,14,17.00
2013,03,30,16,15,17.00
2013,03,30,16,16,17.10
2013,03,30,16,17,17.00
2013,03,30,16,18,16.90
2013,03,30,16,19,16.90
2013,03,30,16,20,16.90
2013,03,30,16,21,17.00
2013,03,30,16,22,17.00
2013,03,30,16,23,17.10
2013,03,30,16,24,17.20
2013,03,30,16,25,17.10
2013,03,30,16,26,17.20
2013,03,30,16,27,17.20
2013,03,30,16,28,17.10
2013,03,30,16,29,17.10
2013,03,30,16,30,17.00
2013,03,30,16,31,17.00
2013,03,30,16,32,17.00
2013,03,30,16,33,17.00
2013,03,30,16,34,17.00
2013,03,30,16,35,16.90
2013,03,30,16,36,16.90
2013,03,30,16,37,16.80
2013,03,30,16,38,16.70
2013,03,30,16,39,16.70
2013,03,30,16,40,16.70
2013,03,30,16,41,16.60
2013,03,30,16,42,16.60
2013,03,30,16,43,16.60
2013,03,30,16,44,16.60
2013,03,30,16,45,16.60
2013,03,30,16,46,16.60
2013,03,30,16,47,16.60
2013,03,30,16,48,16.60
2013,03,30,16,49,16.70
2013,03,30,16,50,16.70
2013,03,30,16,51,16.70
2013,03,30,16,52,16.70
2013,03,30,16,53,16.70
2013,03,30,16,54,16.70
2013,03,30,16,55,16.70
2013,03,30,16,56,16.70
2013,03,30,16,57,16.70
2013,03,30,16,58,16.70
2013,03,30,16,59,16.70
2013,03,30,17,00,16.70
2013,03,30,17,01,16.80
2013,03,30,17,02,16.80
2013,03,30,17,03,16.80
2013,03,30,17,04,16.70
2013,03,30,17,05,16.70
2013,03,30,17,06,16.70
2013,03,30,17,07,16.70
2013,03,30,17,08,16.70
2013,03,30,17,09,16.70
2013,03,30,17,10,16.60
2013,03,30,17,11,16.60
2013,03,30,17,12,16.60
2013,03,30,17,13,16.60
2013,03,30,17,14,16.60
2013,03,30,17,15,16.60
2013,03,30,17,16,16.50
2013,03,30,17,17,16.40
2013,03,30,17,18,16.40
2013,03,30,17,19,16.50
2013,03,30,17,20,16.60
2013,03,30,17,21,16.60
2013,03,30,17,22,16.60
2013,03,30,17,23,16.60
2013,03,30,17,24,16.60
2013,03,30,17,25,16.60
2013,03,30,17,26,16.60
2013,03,30,17,27,16.70
2013,03,30,17,28,16.70
2013,03,30,17,29,16.70
2013,03,30,17,30,16.70
2013,03,30,17,31,16.70
2013,03,30,17,32,16.70
2013,03,30,17,33,16.70
2013,03,30,17,34,16.70
2013,03,30,17,35,16.70
2013,03,30,17,36,16.70
2013,03,30,17,37,16.70
2013,03,30,17,38,16.70
2013,03,30,17,39,16.70
2013,03,30,17,40,16.70
2013,03,30,17,41,16.70
2013,03,30,17,42,16.70
2013,03,30,17,43,16.70